GSAT0223 (GALILEO 27)

Last updated on Wed Feb 18 2026 00:02:36 GMT+0000 (Coordinated Universal Time)

1 49809U 21116A 26048.03988929 -.00000078 00000+0 00000+0 0 9993 2 49809 57.2005 344.9238 0002865 278.1950 264.6358 1.70475508 26130
UTC large
Height (km)
Speed (km/s)
/
Latitude / Longitude
Inclination (degrees)
Orbital Period (minutes)
Azimuth
Elevation
Range (km)
Doppler Factor

Next 0 passes for location: London (51.5072 / 0.1276)

Sorry there are no passes over London.